Regional Weather Roundup
Issued by NWS Midland/Odessa, TX

Skip options and go directly to product.
Home | Oldest Version | Previous Version | Current Version | All | Text Only | Save Text | Print | Product List | Glossary Off

Skip product version selection by date and time.   

055
ASUS44 KMAF 031101
RWRMAF
MIDLAND AREA WEATHER ROUNDUP
NATIONAL WEATHER SERVICE MIDLAND TX
600 AM CDT THU SEP 03 2015

...IN SOUTHWEST TEXAS AND SOUTHEAST NEW MEXICO...

CITY           SKY/WX    TMP DP  RH WIND       PRES   REMARKS
ALPINE         PTCLDY    62  54  73 SW6       30.13S
ANDREWS        FAIR      68  56  65 SW6       30.01F
ARTESIA        PTCLDY    68  52  56 W8        30.02S
BIG SPRING     CLEAR     70  56  61 SE7       30.01S
CARLSBAD       PTCLDY    71  51  49 SE5       29.99S
DRYDEN           N/A     70  60  70 NW9       29.95S
FORT STOCKTON  PTCLDY    70  58  65 S12       29.98S
GUAD PASS      MOCLDY    71  48  43 SW7       30.15S
HOBBS            N/A     64  54  68 W5        30.06S
MARFA          PTCLDY    54  48  82 NW9       30.13R
MIDLAND AIRPK  CLEAR     73  56  57 CALM      30.00S
MIDLAND INTL   CLEAR     68  56  65 CALM      29.99S
ODESSA         CLEAR     72  57  59 S7        30.00F
PECOS          PTCLDY    66  55  66 W7        29.97R
PRESIDIO       NOT AVBL
SEMINOLE       CLEAR     65  55  70 NW8       30.05R
SNYDER         CLEAR     70  58  66 S5        29.99S
WINK           PTCLDY    68  56  65 CALM      29.98R
$$
...OTHER STATIONS IN TEXAS...

CITY           SKY/WX    TMP DP  RH WIND       PRES   REMARKS
ABILENE        CLEAR     73  64  73 S8        29.97S
AMARILLO       CLEAR     66  55  67 S12       30.00F
AUSTIN         PTCLDY    69  68  96 CALM      29.95S
BROWNSVILLE    CLEAR     75  73  93 CALM      29.88S
CORPUS CHRISTI MOCLDY    76  73  91 W5        29.89S
DALLAS FTW     PTCLDY    76  67  73 S8        29.95S
DEL RIO        CLEAR     77  69  76 E9        29.91S
EL PASO        CLOUDY    78  52  40 NW7       30.05S
HOUSTON INT    PTCLDY    73  72  96 N5        29.94S
LUBBOCK        PTCLDY    65  54  67 W6        30.02R
SAN ANGELO     CLEAR     69  59  70 S3        29.97S
SAN ANTONIO    MOCLDY    76  72  87 CALM      29.95S
WACO           CLEAR     74  69  85 SE7       29.96S
WICHITA FALLS  NOT AVBL
$$
...OTHER LOCATIONS IN NEW MEXICO...

CITY           SKY/WX    TMP DP  RH WIND       PRES   REMARKS
ALAMAGORDO     CLOUDY    73  50  43 N7        30.07S
ALBUQUERQUE    CLOUDY    67  48  50 S5        30.15F
CANNON AFB     PTCLDY    67  53  59 W9        30.06S
CLOVIS         PTCLDY    66  52  59 SW8       30.07S
HOLLOMAN AFB   CLOUDY    72  51  47 NW6       30.05S
ROSWELL        CLEAR     71  54  54 CALM      30.02S
RUIDOSO        MOCLDY    57  48  72 SW7       30.26S
SANTA FE       MOCLDY    60  46  59 NE5       30.20S
TRUTH OR CONSE CLOUDY    66  56  70 W8        30.13S
TUCUMCARI      CLEAR     69  50  50 SW13      30.01R
$$

USA.gov is the U.S. government's official web portal to all federal, state and local government web resources and services.